LiveATC.Net - Listen to live air traffic control over the Internet! Contact LiveATC.net for advertising information


ICAO: KACY  IATA: ACY   Airport: Atlantic City International Airport
City: Atlantic City   State/Province: New Jersey
Country: United States   Continent: North America
KACY METAR Weather: KACY 020554Z 24005KT 10SM CLR 24/23 A2996 RMK AO2 SLP143 T02440228 10261 20244 58003
KACY Flight Activity (FlightAware)
KACY Airport Info   (AirNav) (iFlightPlanner)
ZNY ATL86/ZDC SIE54
Feed Status: UP   Listeners: 2
Listen right in your browser - requires Flash (in browser, requires Flash)
Click here to listen with your own player (launches your MP3 player)
ZNY ATL86/ZDC SIE54 Audio Archives
FacilityFrequency
New York Center (Sector 86 Atlantic)133.500
Washington Center (Sector 59 Sea Isle Hi)133.125


ICAO: KHYA  IATA: HYA   Airport: Barnstable Municipal Airport-Boardman/Polando Field
City: Hyannis   State/Province: Massachusetts
Country: United States   Continent: North America
KHYA METAR Weather: KHYA 020556Z AUTO 22007KT 8SM SCT005 22/21 A2993 RMK AO2 SLP136 T02220211 10233 20222 58005
KHYA Flight Activity (FlightAware)
KHYA Airport Info   (AirNav) (iFlightPlanner)
KHYA Twr/Cape App/ZBW/ZNY
Feed Status: UP   Listeners: 2
Listen right in your browser - requires Flash (in browser, requires Flash)
Click here to listen with your own player (launches your MP3 player)
KHYA Twr/Cape App/ZBW/ZNY Audio Archives
FacilityFrequency
Boston Center (ACK 17 sector)133.450
Boston Center (CAPE 18 sector)128.750
Cape Approach118.200
Hyannis Tower119.500
Hyannis Tower257.800
New York Center (High Oceanic)125.925
Otis Tower121.000

Feed courtesy of:
Scan New England

ICAO: KIPT  IATA: IPT   Airport: Williamsport Regional Airport
City: Williamsport   State/Province: Pennsylvania
Country: United States   Continent: North America
KIPT METAR Weather: KIPT 020554Z AUTO 00000KT 4SM BR OVC003 21/20 A2991 RMK AO2 SLP124 T02110200 10261 20211 58008
KIPT Flight Activity (FlightAware)
KIPT Airport Info   (AirNav) (iFlightPlanner)
KIPT Gnd/Twr/ZNY
Feed Status: UP   Listeners: 2
Listen right in your browser - requires Flash (in browser, requires Flash)
Click here to listen with your own player (launches your MP3 player)
KIPT Gnd/Twr/ZNY Audio Archives
FacilityFrequency
New York Center (Sector 91 Williamsport Low)124.900
Williamsport Ground121.900
Williamsport Tower119.100

ZNY North Mountain
Feed Status: DOWN
Last heard on: 2014-06-19 15:34:03 (74 days 15 hours 21 minutes ago)
ZNY North Mountain Audio Archives
FacilityFrequency
ARINC129.400
New York Center (Sector 91 Williamsport Low)124.900
New York Center (Sector 49 Stony Fork High)121.325
New York Center (Sector 72 Burni High [FL180-260])127.725
New York Center (Sector 74 Broadway Low)132.150
New York Center (Sector 75 Milton High)128.575
New York Center (Sector 91 Williamsport Low)134.800
New York Center (Sector 92 Pottstown Low)124.625
New York Center (Sector 93 Swissdale Low )123.625


ICAO: KJFK  IATA: JFK   Airport: John F Kennedy International Airport
City: New York   State/Province: New York
Country: United States   Continent: North America
KJFK METAR Weather: KJFK 020551Z 00000KT 10SM FEW075 24/23 A2993 RMK AO2 SLP135 T02440228 10261 20244 58007 $
KJFK Flight Activity (FlightAware)
KJFK Airport Info   (AirNav) (iFlightPlanner)
ZBW/ZNY/ZDC (JFK Area) #1
Feed Status: UP   Listeners: 4
Listen right in your browser - requires Flash (in browser, requires Flash)
Click here to listen with your own player (launches your MP3 player)
ZBW/ZNY/ZDC (JFK Area) #1 Audio Archives
FacilityFrequency
Boston Center (IGN20 Sector 20 Kingston High)125.575
New York Center (Sector 42 East Texas High)127.175
New York Center (Sector 56 Kennedy High backup)128.675
New York Center (Sector 56 Kennedy High backup)134.375
New York Center (Sector 56 Kennedy High)125.325
Washington Center (Sector 10 BAY High)132.275
Washington Center (Sector 12 High)126.875
Washington Center (Sector 18 DUPONT High)132.525
Washington Center (Sector 19 Woodstown High)125.450

ZBW/ZNY/ZDC (JFK Area) #2
Feed Status: UP   Listeners: 2
Listen right in your browser - requires Flash (in browser, requires Flash)
Click here to listen with your own player (launches your MP3 player)
ZBW/ZNY/ZDC (JFK Area) #2 Audio Archives
FacilityFrequency
New York Center (Sector 67 DIXIE Low)118.975
Washington Center (Sector 34 Yorktown High)120.750
Washington Center (Sector 54 Salisbury High)120.975
Washington Center (Sector 54 Snow Hill High)121.375
Washington Center (Sector 59 Sea Isle High)133.125

ZBW/ZNY/ZDC (JFK Area) #3
Feed Status: UP   Listeners: 2
Listen right in your browser - requires Flash (in browser, requires Flash)
Click here to listen with your own player (launches your MP3 player)
ZBW/ZNY/ZDC (JFK Area) #3 Audio Archives
FacilityFrequency
Emergency/Guard121.500
New York Center (Sector 66 MANTA Low)128.300
New York Center (Sector 82 Kathy High)126.025
New York Center (Sector 86 Atlantic Oceanic High)133.500
Washington Center (Sector 51 Casino Low)127.700

ZBW/ZNY/ZDC (JFK Area) #4
Feed Status: UP   Listeners: 2
Listen right in your browser - requires Flash (in browser, requires Flash)
Click here to listen with your own player (launches your MP3 player)
ZBW/ZNY/ZDC (JFK Area) #4 Audio Archives
FacilityFrequency
New York Center (Sector 55 Yardley Low)134.600
New York Center (Sector 56 Kennedy High backup)128.675
New York Center (Sector 9 Westminster High)134.325
Washington Center (Sector 4 Pinion High)133.975
Washington Center (Sector 58 Coyle High)121.025


ICAO: KLGA  IATA: LGA   Airport: La Guardia Airport
City: New York   State/Province: New York
Country: United States   Continent: North America
KLGA METAR Weather: KLGA 020551Z 21006KT 10SM CLR 27/23 A2992 RMK AO2 SLP130 T02670228 10289 20267 $
KLGA Flight Activity (FlightAware)
KLGA Airport Info   (AirNav) (iFlightPlanner)
KLGA NY Approach (Final Vector)/ZNY
Feed Status: UP   Listeners: 2
Listen right in your browser - requires Flash (in browser, requires Flash)
Click here to listen with your own player (launches your MP3 player)
KLGA NY Approach (Final Vector)/ZNY Audio Archives
FacilityFrequency
New York Approach (LGA Final)134.900
New York Center (Sector 86 Atlantic Hi/Lo)134.375
New York Center (Sector 86 Atlantic Lo/Hi)121.125
New York Center (Sector 86 Backup)133.050


ICAO: KLNS  IATA: LNS   Airport: Lancaster Airport
City: Lancaster   State/Province: Pennsylvania
Country: United States   Continent: North America
KLNS METAR Weather: KLNS 020553Z AUTO 13003KT 5SM BR SCT060 22/21 A2995 RMK AO2 SLP139 60005 T02220211 10250 20217 58005 $
KLNS Flight Activity (FlightAware)
KLNS Airport Info   (AirNav) (iFlightPlanner)
ZNY NY Center (MDT)
Feed Status: UP   Listeners: 2
Listen right in your browser - requires Flash (in browser, requires Flash)
Click here to listen with your own player (launches your MP3 player)
ZNY NY Center (MDT) Audio Archives
FacilityFrequency
NY Center (MDT sector)132.200


ICAO: KMDT  IATA: MDT   Airport: Harrisburg International Airport
City: Harrisburg   State/Province: Pennsylvania
Country: United States   Continent: North America
KMDT METAR Weather: KMDT 020556Z 21008KT 10SM SCT080 26/22 A2993 RMK AO2 SLP134 T02560222 10267 20244 56006
KMDT Flight Activity (FlightAware)
KMDT Airport Info   (AirNav) (iFlightPlanner)
ZNY NY Center (HAR)
Feed Status: UP   Listeners: 2
Listen right in your browser - requires Flash (in browser, requires Flash)
Click here to listen with your own player (launches your MP3 player)
ZNY NY Center (HAR) Audio Archives
FacilityFrequency
NY Center (HAR sector)133.475

ZNY NY Center (JOLIET)
Feed Status: UP   Listeners: 2
Listen right in your browser - requires Flash (in browser, requires Flash)
Click here to listen with your own player (launches your MP3 player)
ZNY NY Center (JOLIET) Audio Archives
FacilityFrequency
NY Center (JOLIET sector)132.500
NY Center (JOLIET sector)133.675


ICAO: KNEL  IATA: NEL   Airport: Lakehurst Maxfield Field Joint Base McGuire
City: Lakehurst   State/Province: New Jersey
Country: United States   Continent: North America
KNEL METAR Weather: KNEL 171900Z AUTO 30005KT SCT055 SCT080 BKN100 27/13 A2999 RMK AO2 SLP153 T02720128 $
KNEL Flight Activity (FlightAware)
KNEL Airport Info   (AirNav) (iFlightPlanner)
KNEL/KWRI/ZNY
Feed Status: UP   Listeners: 2
Listen right in your browser - requires Flash (in browser, requires Flash)
Click here to listen with your own player (launches your MP3 player)
KNEL/KWRI/ZNY Audio Archives
FacilityFrequency
Emergency/Guard121.500
Lakehurst Ground118.375
Lakehurst Ground307.050
Lakehurst Tower127.775
Lakehurst Tower340.200
Lakehurst Tower360.200
McGuire Approach124.150
McGuire Arrival120.250
McGuire Tower118.650
McGuire Tower255.600
McGuire Tower257.800
NEL Army Ops255.700
New York Center (DIXIE Sector Low)118.975
New York Center (DIXIE Sector Low)307.800
New York Center (Kennedy Sector High)125.325
New York Center (Kennedy Sector High)282.300
WRI 108 ANG Command Post251.200
WRI 108 ANG Command Post321.000
WRI Army Ops139.300
WRI Army Ops265.600
WRI Army Ops41.350
WRI Army Ops Command Post319.400
WRI Army Ops Command Post (backup)349.400
WRI Pilot to Dispatch134.100
WRI Pilot to Dispatch372.200
WRI USMC HMH 772 Ops283.000
WRI USMC HMLA 773 Ops264.200


ICAO: KSWF  IATA: SWF   Airport: Stewart International Airport
City: Newburgh   State/Province: New York
Country: United States   Continent: North America
KSWF METAR Weather: KSWF 020445Z 00000KT 10SM SKC 24/22 A2996
KSWF Flight Activity (FlightAware)
KSWF Airport Info   (AirNav) (iFlightPlanner)
ZNY NY Center (HUO)
Feed Status: UP   Listeners: 2
Listen right in your browser - requires Flash (in browser, requires Flash)
Click here to listen with your own player (launches your MP3 player)
ZNY NY Center (HUO) Audio Archives
FacilityFrequency
New York Center (Huguenot Sector)132.600

Sponsored by LiveATC.net and Poughkeepsie Pilots Association

ICAO: KWRI  IATA: WRI   Airport: McGuire Field (Joint Base Mc Guire Dix Lakehurst) Airport
City: Wrightstown   State/Province: New Jersey
Country: United States   Continent: North America
KWRI METAR Weather: KWRI 020558Z AUTO 25003KT 10SM CLR 23/23 A2992 RMK AO2 SLP134 T02330233 10265 20230 57005
KWRI Flight Activity (FlightAware)
KWRI Airport Info   (AirNav) (iFlightPlanner)
KNEL/KWRI/ZNY
Feed Status: UP   Listeners: 2
Listen right in your browser - requires Flash (in browser, requires Flash)
Click here to listen with your own player (launches your MP3 player)
KNEL/KWRI/ZNY Audio Archives
FacilityFrequency
Emergency/Guard121.500
Lakehurst Ground118.375
Lakehurst Ground307.050
Lakehurst Tower127.775
Lakehurst Tower340.200
Lakehurst Tower360.200
McGuire Approach124.150
McGuire Arrival120.250
McGuire Tower118.650
McGuire Tower255.600
McGuire Tower257.800
NEL Army Ops255.700
New York Center (DIXIE Sector Low)118.975
New York Center (DIXIE Sector Low)307.800
New York Center (Kennedy Sector High)125.325
New York Center (Kennedy Sector High)282.300
WRI 108 ANG Command Post251.200
WRI 108 ANG Command Post321.000
WRI Army Ops139.300
WRI Army Ops265.600
WRI Army Ops41.350
WRI Army Ops Command Post319.400
WRI Army Ops Command Post (backup)349.400
WRI Pilot to Dispatch134.100
WRI Pilot to Dispatch372.200
WRI USMC HMH 772 Ops283.000
WRI USMC HMLA 773 Ops264.200


ICAO: TXKF  IATA: BDA   Airport: L F Wade International Airport
City: Hamilton
Country: Bermuda   Continent: North America
TXKF METAR Weather: TXKF 020555Z 00000KT 9999 FEW017 25/24 Q1021 RMK WND EST 
TXKF Flight Activity (FlightAware)
ZNY Bermuda Sector
Feed Status: UP   Listeners: 2
Listen right in your browser - requires Flash (in browser, requires Flash)
Click here to listen with your own player (launches your MP3 player)
ZNY Bermuda Sector Audio Archives
FacilityFrequency
New York Approach (Bermuda Sector) 119.100
New York Center (Bermuda Sector)128.500


NOTICE

Unauthorized use prohibited. See LiveATC.net Terms of Service


Find LiveATC Audio Streams


Airport/ARTCC Code

Frequency
(e.g., 124.400, 128.75)
Site-wide search

Browse LiveATC Feeds
LiveATC Coverage Map
Top 50 LiveATC Feeds
Bad Weather Areas

LiveATC FAQ
Offer a LiveATC Feed
Contact LiveATC.net
Press Inquiries

LiveATC on iPhone
LiveATC on Android

LiveATC Mobile
(Mobile browser)

ATC Audio Archives
Interesting Recordings

LiveATC Forums


Home Page
About LiveATC.net
Make a Donation
LiveATC Bookstore

Terms of Use
Privacy Policy

ATC/Radar Sites
U.S. ARTCC Freqs
Canadian Air Freqs

AIRMETs/SIGMETs

FAA Airport Status
Nat'l Airspace Status
Arrival Demand Charts


Server Software By:
Icecast.org
Liquidsoap

Please make a donation to help us keep growing!